Change the Weather History Date:

Saturday, December 21, 2013

  Actual Average (KHCD) Record (KHCD)
Temperature  
Mean Temperature 17 °F -  
Max Temperature 19 °F 23 °F 46 °F (1967)
Min Temperature 15 °F 5 °F -27 °F (1983)
Degree Days  
Heating Degree Days 48    
Moisture  
Dew Point 11 °F    
Average Humidity 79    
Maximum Humidity 82    
Minimum Humidity 74    
Precipitation  
Precipitation 0.00 in - - ()
Sea Level Pressure  
Sea Level Pressure 29.91 in    
Wind  
Wind Speed 4 mph (NNW)    
Max Wind Speed 9 mph    
Max Gust Speed -    
Visibility 10 miles    
Events Snow    
Averages and records for this station are not official NWS values.
T = Trace of Precipitation, MM = Missing Value Source: NWS Daily Summary

Daily Weather History Graph

Daily Weather History Graph

Search for Another Location

Airport or City:

Trip Planner

Search our weather history database for the weather conditions in past years. The results will help you decide how hot, cold, wet, or windy it might be!

Date:

Astronomy

Dec. 21, 2013 Rise Set
Actual Time 7:50 AM CST 4:38 PM CST
Civil Twilight 7:17 AM CST 5:12 PM CST
Nautical Twilight 6:39 AM CST 5:49 PM CST
Astronomical Twilight 6:04 AM CST 6:24 PM CST
Moon 9:05 PM CST 10:08 AM CST
Length of Visible Light 9h 55m
Length of Day
8h 47m
Waning Gibbous, 84% of the Moon is Illuminated
Dec 21
Waning Gibbous
Dec 25
Last Quarter
Jan 1
New
Jan 7
First Quarter
Jan 15
Full

Hourly Weather History & Observations

Time (CST) Temp. Windchill Dew Point Humidity Pressure Visibility Wind Dir Wind Speed Gust Speed Precip Events Conditions
12:13 AM 15.8 °F 8.6 °F 10.2 °F 79% 29.85 in 10.0 mi West 4.6 mph - N/A   Overcast
12:33 AM 15.6 °F - 10.2 °F 79% 29.84 in 10.0 mi Calm Calm - N/A   Overcast
12:53 AM 15.6 °F 8.3 °F 10.4 °F 80% 29.86 in 10.0 mi West 4.6 mph - N/A   Overcast
1:13 AM 15.6 °F 8.3 °F 10.2 °F 79% 29.85 in 10.0 mi West 4.6 mph - N/A   Overcast
1:33 AM 15.6 °F - 10.4 °F 80% 29.85 in 10.0 mi Calm Calm - N/A   Overcast
1:53 AM 15.8 °F 8.6 °F 10.4 °F 79% 29.86 in 10.0 mi West 4.6 mph - N/A   Overcast
2:12 AM 15.8 °F 6.1 °F 10.4 °F 79% 29.87 in 10.0 mi WNW 6.9 mph - N/A   Overcast
2:33 AM 15.8 °F 10.2 °F 10.4 °F 79% 29.87 in 10.0 mi West 3.5 mph - N/A   Overcast
2:53 AM 15.8 °F - 10.4 °F 79% 29.87 in 10.0 mi Calm Calm - N/A   Overcast
3:13 AM 15.8 °F 10.2 °F 10.4 °F 79% 29.87 in 10.0 mi West 3.5 mph - N/A   Overcast
3:33 AM 15.8 °F - 10.9 °F 81% 29.86 in 10.0 mi Calm Calm - N/A   Overcast
3:53 AM 15.8 °F - 10.9 °F 81% 29.85 in 10.0 mi Calm Calm - N/A   Overcast
4:13 AM 15.8 °F 10.2 °F 11.1 °F 82% 29.86 in 10.0 mi WNW 3.5 mph - N/A   Overcast
4:33 AM 15.8 °F - 10.9 °F 81% 29.84 in 10.0 mi Calm Calm - N/A   Overcast
4:53 AM 15.8 °F - 10.8 °F 80% 29.86 in 10.0 mi Calm Calm - N/A   Overcast
5:13 AM 15.8 °F - 10.8 °F 80% 29.84 in 10.0 mi Calm Calm - N/A   Overcast
5:33 AM 15.8 °F 10.2 °F 10.9 °F 81% 29.85 in 10.0 mi NW 3.5 mph - N/A   Overcast
5:53 AM 16.0 °F - 11.1 °F 81% 29.85 in 10.0 mi Calm Calm - N/A   Overcast
6:13 AM 16.2 °F 9.0 °F 11.1 °F 81% 29.86 in 10.0 mi NNW 4.6 mph - N/A   Overcast
6:33 AM 16.2 °F 7.6 °F 10.4 °F 78% 29.86 in 10.0 mi North 5.8 mph - N/A   Overcast
6:53 AM 16.0 °F 8.8 °F 10.4 °F 79% 29.87 in 10.0 mi North 4.6 mph - N/A   Overcast
7:13 AM 15.8 °F 10.2 °F 10.4 °F 79% 29.88 in 10.0 mi North 3.5 mph - N/A   Overcast
7:33 AM 15.8 °F - 10.4 °F 79% 29.89 in 10.0 mi Calm Calm - N/A   Overcast
7:53 AM 15.8 °F - 10.4 °F 79% 29.88 in 10.0 mi Calm Calm - N/A   Overcast
8:14 AM 15.8 °F - 10.4 °F 79% 29.90 in 10.0 mi Calm Calm - N/A   Overcast
8:33 AM 16.2 °F - 10.4 °F 78% 29.91 in 10.0 mi Calm Calm - N/A   Overcast
8:53 AM 16.2 °F - 10.4 °F 78% 29.91 in 10.0 mi Calm Calm - N/A   Overcast
9:14 AM 16.5 °F 9.4 °F 10.8 °F 78% 29.91 in 10.0 mi North 4.6 mph - N/A   Overcast
9:33 AM 16.7 °F 9.6 °F 10.9 °F 78% 29.91 in 10.0 mi North 4.6 mph - N/A   Overcast
9:53 AM 16.9 °F 11.5 °F 10.9 °F 77% 29.92 in 10.0 mi North 3.5 mph - N/A   Overcast
10:13 AM 16.7 °F 8.3 °F 10.8 °F 77% 29.91 in 10.0 mi North 5.8 mph - N/A   Overcast
10:33 AM 17.4 °F 8.0 °F 11.1 °F 76% 29.92 in 10.0 mi North 6.9 mph - N/A   Overcast
10:53 AM 17.6 °F - 11.1 °F 76% 29.95 in 10.0 mi Calm Calm - N/A   Overcast
11:13 AM 18.3 °F 13.1 °F 11.3 °F 74% 29.94 in 10.0 mi North 3.5 mph - N/A   Overcast
11:33 AM 18.3 °F 9.1 °F 11.3 °F 74% 29.92 in 10.0 mi NNW 6.9 mph - N/A   Overcast
11:53 AM 18.5 °F 8.4 °F 12.0 °F 76% 29.90 in 10.0 mi NNW 8.1 mph - N/A   Overcast
12:14 PM 18.5 °F 9.3 °F 12.2 °F 76% 29.90 in 7.0 mi NNW 6.9 mph - N/A Snow Light Snow
12:33 PM 19.0 °F 12.3 °F 12.0 °F 74% 29.93 in 7.0 mi NNE 4.6 mph - N/A   Mostly Cloudy
12:53 PM 19.0 °F 11.1 °F 12.2 °F 75% 29.92 in 10.0 mi NNW 5.8 mph - N/A   Overcast
1:14 PM 18.5 °F 9.3 °F 12.6 °F 78% 29.92 in 7.0 mi NNW 6.9 mph - N/A   Overcast
1:33 PM 18.9 °F 9.8 °F 12.6 °F 76% 29.93 in 7.0 mi NNW 6.9 mph - N/A   Overcast
1:53 PM 19.0 °F 10.0 °F 12.6 °F 76% 29.92 in 10.0 mi North 6.9 mph - N/A   Overcast
2:14 PM 19.0 °F 12.3 °F 12.4 °F 75% 29.93 in 10.0 mi North 4.6 mph - N/A   Overcast
2:33 PM 19.0 °F 10.0 °F 12.6 °F 76% 29.92 in 7.0 mi North 6.9 mph - N/A Snow Light Snow
2:53 PM 18.7 °F 7.8 °F 12.2 °F 76% 29.92 in 10.0 mi North 9.2 mph - N/A   Overcast
3:13 PM 18.9 °F 9.8 °F 12.4 °F 76% 29.92 in 10.0 mi North 6.9 mph - N/A   Overcast
3:33 PM 18.9 °F 8.8 °F 12.6 °F 76% 29.95 in 7.0 mi North 8.1 mph - N/A   Overcast
3:53 PM 18.7 °F 8.6 °F 12.7 °F 78% 29.94 in 7.0 mi NNW 8.1 mph - N/A Snow Light Snow
4:13 PM 18.5 °F 8.4 °F 12.6 °F 78% 29.94 in 10.0 mi North 8.1 mph - N/A   Overcast
4:33 PM 18.5 °F 9.3 °F 12.6 °F 78% 29.95 in 10.0 mi North 6.9 mph - N/A   Overcast
4:53 PM 18.9 °F 8.8 °F 12.6 °F 76% 29.94 in 10.0 mi North 8.1 mph - N/A   Overcast
5:13 PM 19.0 °F 8.2 °F 12.9 °F 77% 29.94 in 10.0 mi North 9.2 mph - N/A   Overcast
5:33 PM 18.5 °F 8.4 °F 13.1 °F 79% 29.93 in 10.0 mi North 8.1 mph - N/A   Overcast
5:54 PM 19.0 °F 10.0 °F 13.1 °F 78% 29.95 in 10.0 mi North 6.9 mph - N/A   Overcast
6:13 PM 18.7 °F 7.8 °F 12.9 °F 78% 29.95 in 10.0 mi North 9.2 mph - N/A   Overcast
6:33 PM 18.5 °F 10.4 °F 12.7 °F 78% 29.96 in 10.0 mi North 5.8 mph - N/A   Overcast
6:53 PM 18.5 °F 10.4 °F 12.7 °F 78% 29.98 in 7.0 mi North 5.8 mph - N/A   Overcast
7:13 PM 18.1 °F 10.0 °F 12.6 °F 79% 29.97 in 7.0 mi North 5.8 mph - N/A Snow Light Snow
7:33 PM 17.6 °F 8.2 °F 12.4 °F 80% 29.97 in 7.0 mi North 6.9 mph - N/A   Overcast
7:53 PM 17.4 °F 9.1 °F 12.2 °F 80% 29.97 in 10.0 mi North 5.8 mph - N/A   Overcast
8:13 PM 17.4 °F 8.0 °F 12.2 °F 80% 29.97 in 10.0 mi NNW 6.9 mph - N/A   Overcast
8:33 PM 17.2 °F 6.8 °F 12.2 °F 81% 29.95 in 10.0 mi North 8.1 mph - N/A   Overcast
8:53 PM 17.1 °F 8.7 °F 12.0 °F 81% 29.94 in 10.0 mi North 5.8 mph - N/A   Overcast
9:14 PM 16.7 °F 7.2 °F 11.8 °F 81% 29.93 in 10.0 mi North 6.9 mph - N/A   Overcast
9:33 PM 16.7 °F 6.2 °F 11.7 °F 81% 29.92 in 10.0 mi North 8.1 mph - N/A   Overcast
9:53 PM 16.5 °F 6.0 °F 11.3 °F 80% 29.93 in 10.0 mi North 8.1 mph - N/A   Overcast
10:13 PM 16.5 °F 6.0 °F 11.3 °F 80% 29.94 in 10.0 mi North 8.1 mph - N/A   Overcast
10:33 PM 16.3 °F 5.7 °F 11.3 °F 81% 29.94 in 10.0 mi North 8.1 mph - N/A   Overcast
10:53 PM 16.2 °F 6.5 °F 11.1 °F 81% 29.95 in 10.0 mi North 6.9 mph - N/A   Overcast
11:13 PM 16.2 °F 4.7 °F 11.3 °F 81% 29.95 in 10.0 mi North 9.2 mph - N/A   Overcast
11:33 PM 16.2 °F 4.7 °F 11.3 °F 81% 29.95 in 10.0 mi North 9.2 mph - N/A Snow Light Snow
11:53 PM 15.8 °F 5.1 °F 11.3 °F 82% 29.94 in 10.0 mi North 8.1 mph - N/A Snow Light Snow